sat.trackr.live / text

‹ back to catalog

HULIANWANG DIGUI-36

NORAD 64957 · 2025-159B

PAYLOAD ACTIVE UNKNOWN

§ Identity

Operator
Country
PRC
Launch date
2025-07-27
Launch site
TAISC
Launch vehicle
Mass (kg)
RCS (m²)

External: N2YO · Heavens-Above · Gunter

§ Orbital elements

Epoch: 2026-09-21T22:47:09.739392Z

Period
108.73 min
Inclination
86.4920°
Eccentricity
0.0002197
Mean motion
13.24400999 rev/d
Perigee alt
1,166.3 km
Apogee alt
1,169.6 km
Semi-major
7,546.1 km
B*
-1.9703e-4
RAAN
249.8023°
Arg perigee
84.8470°
Mean anomaly
275.2915°
Rev number
5,593

§ Raw data

HULIANWANG DIGUI-361 64957U 25159B   26264.94941828 -.00000070  00000+0 -19703-3 0  99992 64957  86.4920 249.8023 0002197  84.8470 275.2915 13.24400999 55934

JSON: /api/v1/satellites/64957 · /tle

For live sub-satellite position, see the globe view (requires WebGL).

§ Visibility from observer

Set your observer location to see the next 7 days of passes ≥ 10°. The values pass through the URL so the page stays shareable.

No JS? Fill the form by hand. The geolocation button needs JavaScript.